Wind_Speed
86 85 83 82 81 79 79 79 78 75 71 71 70 70 69 64 59 58 53 54 62 81 82 76 79 73 73
94 93 91 90 88 87 83 81 80 80 80 78 77 75 71 68 65 63 57 57 55 52 59 66 70 68 61
100 101 99 98 96 94 94 92 89 87 84 85 85 84 79 74 72 68 64 62 62 56 52 56 54 60 60
107 108 109 109 107 106 103 101 99 97 93 90 91 92 90 86 79 74 70 66 68 65 58 52 52 56 51
114 113 114 115 116 115 114 112 107 107 103 99 98 98 97 97 91 84 77 72 71 68 61 56 53 58 52
117 118 118 120 120 120 120 119 119 113 110 111 104 104 105 102 99 90 85 75 76 72 64 60 51 47 48
117 117 117 120 122 122 122 122 121 121 118 113 113 109 110 108 104 98 91 84 77 76 69 65 59 50 52
112 114 116 117 118 121 120 117 115 117 118 113 116 109 111 112 111 106 100 92 84 81 76 69 65 57 53
106 107 107 108 111 112 114 112 112 112 112 109 114 109 108 113 115 114 108 102 92 87 84 76 70 66 56
104 102 100 101 102 103 106 105 104 107 104 100 108 107 108 108 111 115 117 111 102 94 90 84 80 73 60
87 86 85 85 86 87 89 91 92 95 102 96 102 102 103 104 106 112 116 117 111 100 98 92 87 80 62
75 75 74 74 73 76 80 82 84 85 93 93 97 103 101 104 104 108 111 116 116 108 102 99 96 89 75
68 67 67 67 66 67 69 71 76 80 86 86 91 100 100 102 104 103 110 114 117 115 107 104 102 93 84
63 64 64 63 63 63 64 67 70 75 80 83 84 91 97 101 104 102 107 111 114 118 113 108 106 101 91
62 62 61 60 60 60 60 63 67 71 76 80 80 85 92 95 101 103 104 112 113 116 117 112 110 106 99
57 58 58 57 58 58 57 61 65 69 73 76 77 82 88 91 97 103 103 112 115 115 116 115 114 110 104
52 54 56 54 53 53 53 56 59 65 70 71 74 77 83 89 93 97 102 111 115 115 116 118 117 113 109
Wind_Direction
261 258 256 255 256 255 254 254 251 246 244 243 245 248 251 249 247 249 252 248 245 240 244 249 257 261 258
260 259 258 255 253 252 249 249 251 251 246 242 240 240 243 245 246 248 249 241 238 237 242 249 251 252 254
257 258 257 257 255 250 248 247 248 250 251 248 242 239 238 239 241 243 245 241 235 242 241 246 242 248 245
258 258 257 256 255 254 249 247 248 247 248 250 247 242 238 237 237 240 243 242 239 243 242 242 233 232 234
255 255 255 255 255 254 253 252 247 247 247 246 247 245 242 239 237 236 236 238 240 243 240 240 237 239 237
257 254 252 253 254 254 253 252 252 248 246 248 245 243 241 240 240 234 232 232 234 238 238 236 236 236 235
257 256 256 256 256 257 256 254 252 253 250 244 246 243 240 238 237 236 232 230 232 234 233 235 234 229 233
261 260 259 259 259 257 257 256 255 254 254 250 248 243 240 237 235 233 232 230 230 233 232 232 232 227 231
261 260 260 258 257 256 255 255 254 252 251 249 249 246 242 237 234 232 231 230 229 229 229 230 229 225 226
263 262 261 259 257 256 254 252 251 250 248 245 244 241 240 237 234 232 229 229 227 227 227 227 228 227 222
264 262 260 258 255 253 251 250 247 245 244 240 240 239 235 233 231 232 231 227 227 224 224 224 225 226 219
264 261 258 256 253 251 249 246 245 243 241 237 235 235 233 232 227 227 228 227 225 222 222 222 224 225 223
264 261 258 255 253 250 248 245 242 241 240 236 230 231 229 227 226 222 222 224 224 222 219 220 222 221 224
261 261 258 256 253 249 246 243 241 238 237 234 230 230 227 224 225 220 217 219 221 222 219 218 219 220 218
261 260 258 255 252 248 244 243 240 237 235 234 229 227 226 224 222 220 215 214 216 218 218 217 217 217 218
258 258 257 255 253 248 243 240 239 236 234 232 229 226 225 223 220 220 213 212 211 213 216 215 216 215 214
255 257 257 255 251 247 242 238 237 235 233 229 227 225 223 221 219 217 214 210 210 210 212 215 215 214 214
Height
10512 10518 10523 10528 10531 10533 10535 10538 10544 10551 10556 10562 10567 10573 10578 10584 10591 10596 10602 10607 10614 10624 10630 10633 10635 10649 10658
10483 10488 10493 10501 10508 10511 10515 10520 10523 10529 10537 10543 10550 10557 10563 10570 10576 10582 10588 10595 10601 10610 10618 10623 10625 10635 10646
10459 10457 10462 10466 10475 10484 10490 10496 10502 10507 10514 10524 10531 10539 10546 10552 10560 10565 10572 10581 10588 10594 10604 10612 10615 10622 10633
10429 10429 10430 10432 10441 10446 10459 10468 10475 10482 10491 10498 10508 10516 10525 10533 10540 10549 10556 10566 10573 10582 10591 10599 10604 10610 10623
10391 10397 10395 10397 10404 10412 10421 10429 10446 10451 10463 10471 10481 10489 10499 10509 10521 10531 10540 10551 10558 10567 10577 10585 10592 10598 10608
10353 10358 10361 10361 10364 10375 10386 10393 10403 10420 10434 10436 10451 10460 10469 10481 10495 10511 10521 10532 10542 10553 10563 10571 10579 10587 10595
10315 10318 10326 10328 10332 10339 10346 10358 10369 10374 10389 10406 10411 10429 10442 10453 10468 10484 10499 10513 10524 10537 10547 10557 10565 10576 10584
10278 10281 10287 10291 10295 10300 10307 10319 10330 10338 10344 10368 10373 10396 10408 10422 10436 10456 10475 10491 10506 10518 10531 10541 10551 10561 10570
10238 10243 10247 10252 10254 10261 10265 10277 10288 10297 10307 10327 10335 10359 10372 10389 10404 10430 10448 10466 10484 10497 10511 10524 10537 10546 10558
10199 10203 10207 10213 10217 10223 10227 10239 10251 10258 10266 10287 10296 10316 10333 10353 10379 10394 10415 10439 10457 10476 10491 10507 10519 10530 10545
10162 10165 10170 10176 10180 10186 10192 10200 10211 10221 10223 10251 10264 10274 10298 10316 10342 10364 10383 10408 10427 10451 10468 10486 10499 10516 10532
10131 10133 10137 10142 10149 10153 10157 10168 10177 10187 10191 10214 10230 10240 10263 10281 10304 10329 10352 10371 10397 10424 10444 10463 10480 10496 10517
10101 10105 10110 10115 10121 10127 10133 10141 10148 10155 10162 10181 10197 10209 10231 10251 10269 10295 10317 10341 10366 10394 10418 10438 10457 10477 10494
10079 10082 10086 10091 10097 10103 10109 10115 10121 10128 10137 10150 10168 10182 10200 10219 10238 10263 10288 10313 10337 10364 10391 10413 10433 10455 10473
10057 10059 10063 10069 10074 10079 10087 10091 10096 10105 10114 10125 10144 10157 10172 10193 10213 10233 10262 10282 10304 10332 10362 10388 10408 10431 10454
10036 10038 10042 10047 10052 10057 10064 10068 10074 10082 10091 10104 10120 10133 10147 10166 10185 10204 10234 10253 10276 10306 10335 10363 10385 10408 10432
10017 10019 10022 10026 10031 10036 10042 10048 10054 10060 10069 10084 10098 10112 10125 10139 10158 10180 10204 10226 10253 10283 10308 10335 10360 10385 10411